Time,TemperatureF,DewpointF,PressureIn,WindDirection,WindDirectionDegrees,WindSpeedMPH,WindSpeedGustMPH,Humidity,HourlyPrecipIn,Conditions,Clouds,dailyrainin,SoftwareType,DateUTC
2013-01-20 00:01:00,40.6,29.4,29.80,SSW,212,3.1,4.6,64,0.00,CLR,,0.00,WeatherDisplay:10.37,2013-01-20 05:01:00,
2013-01-20 00:03:00,40.6,29.4,29.80,SW,217,2.5,4.6,64,0.00,CLR,,0.00,WeatherDisplay:10.37,2013-01-20 05:03:00,
2013-01-20 00:08:00,40.6,29.4,29.80,SSW,198,2.5,4.6,64,0.00,CLR,,0.00,WeatherDisplay:10.37,2013-01-20 05:08:00,
2013-01-20 00:13:00,40.8,29.2,29.79,WSW,240,3.1,3.5,63,0.00,CLR,,0.00,WeatherDisplay:10.37,2013-01-20 05:13:00,
2013-01-20 00:18:00,40.8,29.6,29.78,SSE,167,3.3,7.0,64,0.00,CLR,,0.00,WeatherDisplay:10.37,2013-01-20 05:18:00,
2013-01-20 00:23:00,40.9,29.3,29.78,South,181,2.7,5.8,63,0.00,CLR,,0.00,WeatherDisplay:10.37,2013-01-20 05:23:00,
2013-01-20 00:28:00,40.9,29.3,29.78,WSW,251,2.9,4.6,63,0.00,CLR,,0.00,WeatherDisplay:10.37,2013-01-20 05:28:00,
2013-01-20 00:33:00,40.9,29.3,29.78,SSW,210,2.4,3.5,63,0.00,CLR,,0.00,WeatherDisplay:10.37,2013-01-20 05:33:00,
2013-01-20 00:39:00,40.8,29.2,29.78,SSW,202,1.7,4.6,63,0.00,CLR,,0.00,WeatherDisplay:10.37,2013-01-20 05:39:00,
2013-01-20 00:44:00,40.5,29.3,29.77,SSW,196,1.9,4.6,64,0.00,CLR,,0.00,WeatherDisplay:10.37,2013-01-20 05:44:00,
2013-01-20 00:49:00,40.2,29.4,29.77,SW,226,2.7,3.0,65,0.00,CLR,,0.00,WeatherDisplay:10.37,2013-01-20 05:49:00,
2013-01-20 00:54:00,40.1,29.3,29.77,SW,224,2.1,5.8,65,0.00,CLR,,0.00,WeatherDisplay:10.37,2013-01-20 05:54:00,
2013-01-20 01:00:00,39.9,29.1,29.76,SW,217,2.7,4.0,65,0.00,CLR,,0.00,WeatherDisplay:10.37,2013-01-20 06:00:00,
2013-01-20 01:05:00,39.8,29.4,29.76,SW,218,1.5,3.5,66,0.00,CLR,,0.00,WeatherDisplay:10.37,2013-01-20 06:05:00,
2013-01-20 01:10:00,39.6,29.2,29.75,SSW,196,3.1,5.8,66,0.00,CLR,,0.00,WeatherDisplay:10.37,2013-01-20 06:10:00,
2013-01-20 01:15:00,39.6,29.2,29.75,South,171,3.4,11.5,66,0.00,CLR,,0.00,WeatherDisplay:10.37,2013-01-20 06:15:00,
2013-01-20 01:20:00,39.6,29.2,29.75,SW,219,3.4,6.9,66,0.00,CLR,,0.00,WeatherDisplay:10.37,2013-01-20 06:20:00,
2013-01-20 01:26:00,39.6,29.2,29.75,SSW,212,2.9,6.9,66,0.00,CLR,,0.00,WeatherDisplay:10.37,2013-01-20 06:26:00,
2013-01-20 01:31:00,39.5,29.1,29.75,SSW,209,3.2,6.9,66,0.00,CLR,,0.00,WeatherDisplay:10.37,2013-01-20 06:31:00,
2013-01-20 01:36:00,39.5,29.4,29.75,SW,223,2.9,6.9,67,0.00,CLR,,0.00,WeatherDisplay:10.37,2013-01-20 06:36:00,
2013-01-20 01:42:00,39.5,29.4,29.75,SW,227,2.1,5.0,67,0.00,CLR,,0.00,WeatherDisplay:10.37,2013-01-20 06:42:00,
2013-01-20 01:47:00,39.3,29.3,29.75,SW,234,3.2,5.8,67,0.00,CLR,,0.00,WeatherDisplay:10.37,2013-01-20 06:47:00,
2013-01-20 01:52:00,39.3,29.3,29.74,SW,217,1.5,3.5,67,0.00,CLR,,0.00,WeatherDisplay:10.37,2013-01-20 06:52:00,
2013-01-20 01:57:00,39.3,29.6,29.74,SW,234,3.4,6.9,68,0.00,CLR,,0.00,WeatherDisplay:10.37,2013-01-20 06:57:00,
2013-01-20 02:02:00,39.3,29.3,29.75,WSW,239,5.9,9.2,67,0.00,CLR,,0.00,WeatherDisplay:10.37,2013-01-20 07:02:00,
2013-01-20 02:08:00,39.2,29.5,29.75,WSW,238,4.7,9.2,68,0.00,CLR,,0.00,WeatherDisplay:10.37,2013-01-20 07:08:00,
2013-01-20 02:13:00,39.1,29.4,29.75,SSW,211,3.4,8.1,68,0.00,CLR,,0.00,WeatherDisplay:10.37,2013-01-20 07:13:00,
2013-01-20 02:18:00,38.8,29.5,29.74,SW,223,3.8,5.8,69,0.00,CLR,,0.00,WeatherDisplay:10.37,2013-01-20 07:18:00,
2013-01-20 02:24:00,38.5,29.2,29.74,WSW,241,3.6,4.6,69,0.00,CLR,,0.00,WeatherDisplay:10.37,2013-01-20 07:24:00,
2013-01-20 02:29:00,38.3,29.4,29.74,SSW,209,2.7,4.6,70,0.00,CLR,,0.00,WeatherDisplay:10.37,2013-01-20 07:29:00,
2013-01-20 02:34:00,38.2,29.3,29.74,SW,229,3.6,6.9,70,0.00,CLR,,0.00,WeatherDisplay:10.37,2013-01-20 07:34:00,
2013-01-20 02:39:00,38.2,29.3,29.74,SSW,209,3.5,4.6,70,0.00,CLR,,0.00,WeatherDisplay:10.37,2013-01-20 07:39:00,
2013-01-20 02:45:00,38.0,29.1,29.74,West,270,4.7,9.2,70,0.00,CLR,,0.00,WeatherDisplay:10.37,2013-01-20 07:45:00,
2013-01-20 02:50:00,37.9,29.3,29.73,SW,214,3.6,4.6,71,0.00,CLR,,0.00,WeatherDisplay:10.37,2013-01-20 07:50:00,
2013-01-20 02:55:00,37.9,29.3,29.73,SSW,196,3.8,8.1,71,0.00,CLR,,0.00,WeatherDisplay:10.37,2013-01-20 07:55:00,
2013-01-20 03:00:00,37.8,29.2,29.73,SSW,202,4.0,10.0,71,0.00,CLR,,0.00,WeatherDisplay:10.37,2013-01-20 08:00:00,
2013-01-20 03:05:00,37.8,29.2,29.72,WSW,240,4.3,8.1,71,0.00,CLR,,0.00,WeatherDisplay:10.37,2013-01-20 08:05:00,
2013-01-20 03:11:00,37.9,29.3,29.72,South,176,5.3,6.9,71,0.00,CLR,,0.00,WeatherDisplay:10.37,2013-01-20 08:11:00,
2013-01-20 03:16:00,37.8,29.2,29.72,SW,228,5.0,6.9,71,0.00,CLR,,0.00,WeatherDisplay:10.37,2013-01-20 08:16:00,
2013-01-20 03:21:00,37.6,29.0,29.72,SW,223,3.8,4.6,71,0.00,CLR,,0.00,WeatherDisplay:10.37,2013-01-20 08:21:00,
2013-01-20 03:26:00,37.6,29.4,29.72,SW,219,5.5,11.5,72,0.00,CLR,,0.00,WeatherDisplay:10.37,2013-01-20 08:26:00,
2013-01-20 03:32:00,37.5,29.3,29.71,SW,217,3.1,4.6,72,0.00,CLR,,0.00,WeatherDisplay:10.37,2013-01-20 08:32:00,
2013-01-20 03:37:00,37.5,29.3,29.71,WSW,240,3.7,6.0,72,0.00,CLR,,0.00,WeatherDisplay:10.37,2013-01-20 08:37:00,
2013-01-20 03:42:00,37.3,29.1,29.71,SSW,210,3.4,3.5,72,0.00,CLR,,0.00,WeatherDisplay:10.37,2013-01-20 08:42:00,
2013-01-20 03:48:00,37.2,29.3,29.71,WSW,237,3.1,5.0,73,0.00,CLR,,0.00,WeatherDisplay:10.37,2013-01-20 08:48:00,
2013-01-20 03:53:00,37.0,29.1,29.71,SW,220,3.8,5.8,73,0.00,CLR,,0.00,WeatherDisplay:10.37,2013-01-20 08:53:00,
2013-01-20 03:58:00,37.0,29.1,29.71,WSW,238,2.4,3.5,73,0.00,CLR,,0.00,WeatherDisplay:10.37,2013-01-20 08:58:00,
2013-01-20 04:03:00,36.9,29.1,29.71,SSW,205,3.5,5.0,73,0.00,CLR,,0.00,WeatherDisplay:10.37,2013-01-20 09:03:00,
2013-01-20 04:09:00,36.9,29.1,29.70,SW,234,3.7,9.0,73,0.00,CLR,,0.00,WeatherDisplay:10.37,2013-01-20 09:09:00,
2013-01-20 04:14:00,37.0,29.1,29.69,SW,223,1.8,5.8,73,0.00,CLR,,0.00,WeatherDisplay:10.37,2013-01-20 09:14:00,
2013-01-20 04:19:00,37.0,29.1,29.69,South,176,4.8,6.9,73,0.00,CLR,,0.00,WeatherDisplay:10.37,2013-01-20 09:19:00,
2013-01-20 04:24:00,37.0,29.1,29.69,SW,215,2.6,5.8,73,0.00,CLR,,0.00,WeatherDisplay:10.37,2013-01-20 09:24:00,
2013-01-20 04:29:00,36.9,29.4,29.68,SW,224,4.1,10.4,74,0.00,CLR,,0.00,WeatherDisplay:10.37,2013-01-20 09:29:00,
2013-01-20 04:34:00,36.8,29.3,29.68,WSW,254,3.0,9.2,74,0.00,CLR,,0.00,WeatherDisplay:10.37,2013-01-20 09:34:00,
2013-01-20 04:40:00,36.8,29.3,29.68,SSW,212,3.6,5.8,74,0.00,CLR,,0.00,WeatherDisplay:10.37,2013-01-20 09:40:00,
2013-01-20 04:45:00,36.8,29.3,29.67,South,180,3.0,5.0,74,0.00,CLR,,0.00,WeatherDisplay:10.37,2013-01-20 09:45:00,
2013-01-20 04:50:00,36.6,29.4,29.67,SW,221,4.3,9.2,75,0.00,CLR,,0.00,WeatherDisplay:10.37,2013-01-20 09:50:00,
2013-01-20 04:55:00,36.5,29.3,29.66,SW,217,4.9,5.8,75,0.00,CLR,,0.00,WeatherDisplay:10.37,2013-01-20 09:55:00,
2013-01-20 05:00:00,36.5,29.3,29.66,SSW,198,4.1,9.2,75,0.00,CLR,,0.00,WeatherDisplay:10.37,2013-01-20 10:00:00,
2013-01-20 05:06:00,36.6,29.4,29.66,SW,231,3.9,6.9,75,0.00,CLR,,0.00,WeatherDisplay:10.37,2013-01-20 10:06:00,
2013-01-20 05:11:00,36.6,29.4,29.66,SW,231,4.4,7.0,75,0.00,CLR,,0.00,WeatherDisplay:10.37,2013-01-20 10:11:00,
2013-01-20 05:16:00,36.6,29.4,29.66,SSW,202,3.6,6.9,75,0.00,CLR,,0.00,WeatherDisplay:10.37,2013-01-20 10:16:00,
2013-01-20 05:21:00,36.5,29.3,29.66,SSW,206,5.0,9.2,75,0.00,CLR,,0.00,WeatherDisplay:10.37,2013-01-20 10:21:00,
2013-01-20 05:26:00,36.5,29.3,29.66,SW,218,4.7,9.2,75,0.00,CLR,,0.00,WeatherDisplay:10.37,2013-01-20 10:26:00,
2013-01-20 05:31:00,36.3,29.1,29.65,SSW,210,5.0,6.9,75,0.00,CLR,,0.00,WeatherDisplay:10.37,2013-01-20 10:31:00,
2013-01-20 05:36:00,36.2,29.4,29.65,SW,225,3.9,6.9,76,0.00,CLR,,0.00,WeatherDisplay:10.37,2013-01-20 10:36:00,
2013-01-20 05:42:00,36.0,29.2,29.65,SW,217,3.5,4.0,76,0.00,CLR,,0.00,WeatherDisplay:10.37,2013-01-20 10:42:00,
2013-01-20 05:47:00,35.8,29.3,29.65,SW,226,3.1,3.5,77,0.00,CLR,,0.00,WeatherDisplay:10.37,2013-01-20 10:47:00,
2013-01-20 05:52:00,35.6,29.1,29.65,SW,216,3.9,9.2,77,0.00,CLR,,0.00,WeatherDisplay:10.37,2013-01-20 10:52:00,
2013-01-20 05:57:00,35.6,29.4,29.64,SSW,210,4.9,11.5,78,0.00,CLR,,0.00,WeatherDisplay:10.37,2013-01-20 10:57:00,
2013-01-20 06:03:00,35.6,29.1,29.64,SSW,199,5.4,5.4,77,0.00,CLR,,0.00,WeatherDisplay:10.37,2013-01-20 11:03:00,
2013-01-20 06:08:00,35.5,29.0,29.64,SW,224,5.0,9.2,77,0.00,CLR,,0.00,WeatherDisplay:10.37,2013-01-20 11:08:00,
2013-01-20 06:13:00,35.5,29.0,29.64,SW,231,2.6,3.5,77,0.00,CLR,,0.00,WeatherDisplay:10.37,2013-01-20 11:13:00,
2013-01-20 06:19:00,35.3,29.1,29.64,SSW,213,4.1,8.1,78,0.00,CLR,,0.00,WeatherDisplay:10.37,2013-01-20 11:19:00,
2013-01-20 06:24:00,35.2,29.0,29.64,SSW,207,3.7,10.4,78,0.00,CLR,,0.00,WeatherDisplay:10.37,2013-01-20 11:24:00,
2013-01-20 06:29:00,35.2,29.0,29.64,SW,225,5.2,6.9,78,0.00,CLR,,0.00,WeatherDisplay:10.37,2013-01-20 11:29:00,
2013-01-20 06:34:00,35.2,29.0,29.63,SW,225,4.0,5.8,78,0.00,CLR,,0.00,WeatherDisplay:10.37,2013-01-20 11:34:00,
2013-01-20 06:40:00,35.2,29.0,29.63,SSW,208,2.8,8.1,78,0.00,CLR,,0.00,WeatherDisplay:10.37,2013-01-20 11:40:00,
2013-01-20 06:45:00,35.0,28.8,29.63,SW,215,3.9,5.8,78,0.00,CLR,,0.00,WeatherDisplay:10.37,2013-01-20 11:45:00,
2013-01-20 06:50:00,35.0,28.8,29.63,SSW,207,2.8,4.6,78,0.00,CLR,,0.00,WeatherDisplay:10.37,2013-01-20 11:50:00,
2013-01-20 06:55:00,35.2,29.0,29.63,SSW,211,4.4,5.0,78,0.00,CLR,,0.00,WeatherDisplay:10.37,2013-01-20 11:55:00,
2013-01-20 07:00:00,35.3,28.8,29.63,SW,232,3.7,5.8,77,0.00,CLR,,0.00,WeatherDisplay:10.37,2013-01-20 12:00:00,
2013-01-20 07:05:00,35.3,28.8,29.63,SSW,197,5.7,10.4,77,0.00,CLR,,0.00,WeatherDisplay:10.37,2013-01-20 12:05:00,
2013-01-20 07:11:00,35.5,29.0,29.63,SSW,205,8.0,8.0,77,0.00,CLR,,0.00,WeatherDisplay:10.37,2013-01-20 12:11:00,
2013-01-20 07:16:00,35.3,28.8,29.63,SW,233,4.3,10.0,77,0.00,CLR,,0.00,WeatherDisplay:10.37,2013-01-20 12:16:00,
2013-01-20 07:21:00,35.3,29.1,29.63,SW,218,6.7,10.0,78,0.00,CLR,,0.00,WeatherDisplay:10.37,2013-01-20 12:21:00,
2013-01-20 07:26:00,35.2,29.0,29.63,SSW,209,5.8,10.4,78,0.00,CLR,,0.00,WeatherDisplay:10.37,2013-01-20 12:26:00,
2013-01-20 07:32:00,35.3,29.1,29.63,SW,224,4.9,6.9,78,0.00,CLR,,0.00,WeatherDisplay:10.37,2013-01-20 12:32:00,
2013-01-20 07:37:00,35.2,29.0,29.63,South,171,9.2,9.2,78,0.00,CLR,,0.00,WeatherDisplay:10.37,2013-01-20 12:37:00,
2013-01-20 07:42:00,35.2,29.0,29.64,SW,227,6.0,11.5,78,0.00,CLR,,0.00,WeatherDisplay:10.37,2013-01-20 12:42:00,
2013-01-20 07:47:00,35.3,28.8,29.64,SW,223,4.5,5.8,77,0.00,CLR,,0.00,WeatherDisplay:10.37,2013-01-20 12:47:00,
2013-01-20 07:52:00,35.3,28.8,29.64,SW,221,3.8,5.8,77,0.00,CLR,,0.00,WeatherDisplay:10.37,2013-01-20 12:52:00,
2013-01-20 07:58:00,35.2,29.0,29.64,SW,227,4.1,6.9,78,0.00,CLR,,0.00,WeatherDisplay:10.37,2013-01-20 12:58:00,
2013-01-20 08:03:00,35.3,29.1,29.63,SW,215,5.2,11.5,78,0.00,CLR,,0.00,WeatherDisplay:10.37,2013-01-20 13:03:00,
2013-01-20 08:08:00,35.5,29.3,29.63,SW,235,5.1,9.2,78,0.00,CLR,,0.00,WeatherDisplay:10.37,2013-01-20 13:08:00,
2013-01-20 08:13:00,35.6,29.1,29.64,SW,224,4.5,11.5,77,0.00,CLR,,0.00,WeatherDisplay:10.37,2013-01-20 13:13:00,
2013-01-20 08:19:00,35.9,29.4,29.64,SW,229,3.9,5.8,77,0.00,CLR,,0.00,WeatherDisplay:10.37,2013-01-20 13:19:00,
2013-01-20 08:24:00,36.2,29.4,29.64,SSW,198,4.7,9.2,76,0.00,CLR,,0.00,WeatherDisplay:10.37,2013-01-20 13:24:00,
2013-01-20 08:29:00,36.5,29.3,29.64,SW,221,7.1,13.8,75,0.00,CLR,,0.00,WeatherDisplay:10.37,2013-01-20 13:29:00,
2013-01-20 08:34:00,36.9,29.4,29.64,SSW,205,4.2,9.2,74,0.00,CLR,,0.00,WeatherDisplay:10.37,2013-01-20 13:34:00,
2013-01-20 08:40:00,37.3,29.4,29.64,SSW,198,4.7,6.9,73,0.00,CLR,,0.00,WeatherDisplay:10.37,2013-01-20 13:40:00,
2013-01-20 08:45:00,37.8,29.6,29.63,SW,221,4.9,8.1,72,0.00,CLR,,0.00,WeatherDisplay:10.37,2013-01-20 13:45:00,
2013-01-20 08:50:00,37.9,29.3,29.63,SW,229,4.3,10.4,71,0.00,CLR,,0.00,WeatherDisplay:10.37,2013-01-20 13:50:00,
2013-01-20 08:56:00,38.0,29.8,29.63,SW,225,3.3,6.9,72,0.00,CLR,,0.00,WeatherDisplay:10.37,2013-01-20 13:56:00,
2013-01-20 09:01:00,38.2,29.6,29.63,SW,219,4.2,6.9,71,0.00,CLR,,0.00,WeatherDisplay:10.37,2013-01-20 14:01:00,
2013-01-20 09:06:00,38.6,29.7,29.62,SSW,212,5.6,7.0,70,0.00,CLR,,0.00,WeatherDisplay:10.37,2013-01-20 14:06:00,
2013-01-20 09:12:00,39.1,29.8,29.63,SW,219,5.0,5.0,69,0.00,CLR,,0.00,WeatherDisplay:10.37,2013-01-20 14:12:00,
2013-01-20 09:17:00,39.2,29.5,29.62,South,178,4.1,8.1,68,0.00,CLR,,0.00,WeatherDisplay:10.37,2013-01-20 14:17:00,
2013-01-20 09:22:00,39.6,29.9,29.62,SW,233,4.2,12.7,68,0.00,CLR,,0.00,WeatherDisplay:10.37,2013-01-20 14:22:00,
2013-01-20 09:28:00,40.1,29.6,29.62,SW,233,4.8,11.5,66,0.00,CLR,,0.00,WeatherDisplay:10.37,2013-01-20 14:28:00,
2013-01-20 09:33:00,40.3,29.8,29.62,WSW,238,3.4,15.0,66,0.00,CLR,,0.00,WeatherDisplay:10.37,2013-01-20 14:33:00,
2013-01-20 09:38:00,40.9,29.7,29.62,SW,225,6.5,13.8,64,0.00,CLR,,0.00,WeatherDisplay:10.37,2013-01-20 14:38:00,
2013-01-20 09:43:00,41.9,29.8,29.62,South,187,4.5,6.9,62,0.00,CLR,,0.00,WeatherDisplay:10.37,2013-01-20 14:43:00,
2013-01-20 09:49:00,42.5,29.6,29.62,WSW,244,5.5,13.0,60,0.00,CLR,,0.00,WeatherDisplay:10.37,2013-01-20 14:49:00,
2013-01-20 09:54:00,42.9,29.5,29.61,SSW,194,6.5,11.5,59,0.00,CLR,,0.00,WeatherDisplay:10.37,2013-01-20 14:54:00,
2013-01-20 09:59:00,43.2,29.8,29.61,West,261,4.5,11.5,59,0.00,CLR,,0.00,WeatherDisplay:10.37,2013-01-20 14:59:00,
2013-01-20 10:04:00,43.6,29.4,29.61,SW,228,6.5,11.5,57,0.00,CLR,,0.00,WeatherDisplay:10.37,2013-01-20 15:04:00,
2013-01-20 10:09:00,44.1,29.8,29.61,WSW,239,7.2,13.8,57,0.00,CLR,,0.00,WeatherDisplay:10.37,2013-01-20 15:09:00,
2013-01-20 10:15:00,44.5,29.8,29.61,SW,219,5.2,12.7,56,0.00,CLR,,0.00,WeatherDisplay:10.37,2013-01-20 15:15:00,
2013-01-20 10:20:00,44.5,30.2,29.60,SW,224,4.0,6.9,57,0.00,CLR,,0.00,WeatherDisplay:10.37,2013-01-20 15:20:00,
2013-01-20 10:25:00,44.6,29.9,29.60,SW,236,4.9,16.1,56,0.00,CLR,,0.00,WeatherDisplay:10.37,2013-01-20 15:25:00,
2013-01-20 10:31:00,45.2,30.0,29.60,WSW,247,6.1,10.4,55,0.00,CLR,,0.00,WeatherDisplay:10.37,2013-01-20 15:31:00,
2013-01-20 10:36:00,45.5,29.8,29.59,SW,215,7.6,12.7,54,0.00,CLR,,0.00,WeatherDisplay:10.37,2013-01-20 15:36:00,
2013-01-20 10:41:00,45.8,30.1,29.59,WSW,238,4.9,7.0,54,0.00,CLR,,0.00,WeatherDisplay:10.37,2013-01-20 15:41:00,
2013-01-20 10:46:00,46.4,30.2,29.58,WSW,249,4.9,6.9,53,0.00,CLR,,0.00,WeatherDisplay:10.37,2013-01-20 15:46:00,
2013-01-20 10:51:00,46.8,30.1,29.58,WSW,245,3.8,9.2,52,0.00,CLR,,0.00,WeatherDisplay:10.37,2013-01-20 15:51:00,
2013-01-20 10:56:00,47.1,29.4,29.58,WSW,250,6.0,15.0,50,0.00,CLR,,0.00,WeatherDisplay:10.37,2013-01-20 15:56:00,
2013-01-20 11:02:00,47.6,29.4,29.58,West,269,5.7,11.0,49,0.00,CLR,,0.00,WeatherDisplay:10.37,2013-01-20 16:02:00,
2013-01-20 11:07:00,47.9,29.6,29.57,WSW,252,6.3,12.0,49,0.00,CLR,,0.00,WeatherDisplay:10.37,2013-01-20 16:07:00,
2013-01-20 11:12:00,48.3,30.0,29.58,SSW,201,7.9,11.5,49,0.00,CLR,,0.00,WeatherDisplay:10.37,2013-01-20 16:12:00,
2013-01-20 11:17:00,48.8,30.0,29.57,NW,326,5.0,9.2,48,0.00,CLR,,0.00,WeatherDisplay:10.37,2013-01-20 16:17:00,
2013-01-20 11:22:00,48.9,29.5,29.57,SW,234,4.0,4.6,47,0.00,CLR,,0.00,WeatherDisplay:10.37,2013-01-20 16:22:00,
2013-01-20 11:28:00,49.1,29.7,29.56,SSW,209,4.9,12.0,47,0.00,CLR,,0.00,WeatherDisplay:10.37,2013-01-20 16:28:00,
2013-01-20 11:33:00,48.9,30.1,29.56,WSW,254,3.9,5.8,48,0.00,CLR,,0.00,WeatherDisplay:10.37,2013-01-20 16:33:00,
2013-01-20 11:38:00,48.9,29.5,29.56,SW,232,5.7,13.8,47,0.00,CLR,,0.00,WeatherDisplay:10.37,2013-01-20 16:38:00,
2013-01-20 11:43:00,48.9,29.0,29.56,SW,223,7.5,19.6,46,0.00,CLR,,0.00,WeatherDisplay:10.37,2013-01-20 16:43:00,
2013-01-20 11:48:00,48.9,29.0,29.56,WSW,239,5.7,11.5,46,0.00,CLR,,0.00,WeatherDisplay:10.37,2013-01-20 16:48:00,
2013-01-20 11:54:00,48.8,28.9,29.56,West,275,5.9,12.7,46,0.00,CLR,,0.00,WeatherDisplay:10.37,2013-01-20 16:54:00,
2013-01-20 11:59:00,48.9,30.1,29.56,WSW,254,4.0,5.8,48,0.00,CLR,,0.00,WeatherDisplay:10.37,2013-01-20 16:59:00,
2013-01-20 12:04:00,48.9,29.0,29.56,SSW,197,4.0,10.4,46,0.00,CLR,,0.00,WeatherDisplay:10.37,2013-01-20 17:04:00,
2013-01-20 12:09:00,48.8,28.9,29.56,WSW,257,4.7,5.8,46,0.00,CLR,,0.00,WeatherDisplay:10.37,2013-01-20 17:09:00,
2013-01-20 12:14:00,48.8,29.4,29.56,West,271,4.8,5.8,47,0.00,CLR,,0.00,WeatherDisplay:10.37,2013-01-20 17:14:00,
2013-01-20 12:19:00,48.8,28.9,29.56,WSW,254,5.0,11.5,46,0.00,CLR,,0.00,WeatherDisplay:10.37,2013-01-20 17:19:00,
2013-01-20 12:24:00,48.6,28.7,29.56,WNW,294,3.4,10.4,46,0.00,CLR,,0.00,WeatherDisplay:10.37,2013-01-20 17:24:00,
2013-01-20 12:30:00,48.3,28.5,29.56,West,261,3.8,6.9,46,0.00,CLR,,0.00,WeatherDisplay:10.37,2013-01-20 17:30:00,
2013-01-20 12:35:00,48.2,28.9,29.56,SW,228,3.3,5.0,47,0.00,CLR,,0.00,WeatherDisplay:10.37,2013-01-20 17:35:00,
2013-01-20 12:40:00,48.0,28.7,29.57,WNW,290,3.6,6.9,47,0.00,CLR,,0.00,WeatherDisplay:10.37,2013-01-20 17:40:00,
2013-01-20 12:45:00,47.9,29.1,29.57,West,275,2.4,4.6,48,0.00,CLR,,0.00,WeatherDisplay:10.37,2013-01-20 17:45:00,
2013-01-20 12:51:00,47.7,28.9,29.57,WSW,257,7.3,16.1,48,0.00,CLR,,0.00,WeatherDisplay:10.37,2013-01-20 17:51:00,
2013-01-20 12:56:00,47.7,28.4,29.57,WSW,240,6.8,6.9,47,0.00,CLR,,0.00,WeatherDisplay:10.37,2013-01-20 17:56:00,
2013-01-20 13:01:00,47.6,28.9,29.57,West,261,5.3,11.5,48,0.00,CLR,,0.00,WeatherDisplay:10.37,2013-01-20 18:01:00,
2013-01-20 13:06:00,47.6,28.9,29.57,SW,229,4.7,9.2,48,0.00,CLR,,0.00,WeatherDisplay:10.37,2013-01-20 18:06:00,
2013-01-20 13:11:00,48.0,29.2,29.58,WSW,255,3.8,6.9,48,0.00,CLR,,0.00,WeatherDisplay:10.37,2013-01-20 18:11:00,
2013-01-20 13:16:00,48.8,29.4,29.58,West,268,4.6,9.2,47,0.00,CLR,,0.00,WeatherDisplay:10.37,2013-01-20 18:16:00,
2013-01-20 13:22:00,49.2,29.3,29.58,WNW,284,2.7,4.6,46,0.00,CLR,,0.00,WeatherDisplay:10.37,2013-01-20 18:22:00,
2013-01-20 13:27:00,49.4,28.4,29.58,NW,304,2.5,6.9,44,0.00,CLR,,0.00,WeatherDisplay:10.37,2013-01-20 18:27:00,
2013-01-20 13:32:00,49.6,29.1,29.58,NW,316,2.3,6.9,45,0.00,CLR,,0.00,WeatherDisplay:10.37,2013-01-20 18:32:00,
2013-01-20 13:38:00,50.1,27.9,29.58,WSW,258,4.7,6.0,42,0.00,CLR,,0.00,WeatherDisplay:10.37,2013-01-20 18:38:00,
2013-01-20 13:43:00,50.4,27.6,29.58,WNW,301,5.0,13.8,41,0.00,CLR,,0.00,WeatherDisplay:10.37,2013-01-20 18:43:00,
2013-01-20 13:48:00,50.4,27.0,29.59,NW,323,9.5,13.8,40,0.00,CLR,,0.00,WeatherDisplay:10.37,2013-01-20 18:48:00,
2013-01-20 13:53:00,50.5,26.4,29.59,West,263,10.9,17.3,39,0.00,CLR,,0.00,WeatherDisplay:10.37,2013-01-20 18:53:00,
2013-01-20 13:58:00,50.7,27.2,29.60,NNW,333,4.1,6.9,40,0.00,CLR,,0.00,WeatherDisplay:10.37,2013-01-20 18:58:00,
2013-01-20 14:04:00,50.8,25.4,29.60,WNW,296,7.3,10.4,37,0.00,CLR,,0.00,WeatherDisplay:10.37,2013-01-20 19:04:00,
2013-01-20 14:46:00,50.2,19.1,29.63,NW,308,5.3,11.5,29,0.00,CLR,,0.00,WeatherDisplay:10.37,2013-01-20 19:46:00,
2013-01-20 14:52:00,49.9,19.7,29.63,WNW,288,5.4,10.4,30,0.00,CLR,,0.00,WeatherDisplay:10.37,2013-01-20 19:52:00,
2013-01-20 14:57:00,49.2,17.4,29.63,WSW,253,14.3,20.7,28,0.00,CLR,,0.00,WeatherDisplay:10.37,2013-01-20 19:57:00,
2013-01-20 15:02:00,48.5,17.6,29.63,NNW,333,12.3,19.6,29,0.00,CLR,,0.00,WeatherDisplay:10.37,2013-01-20 20:02:00,
2013-01-20 15:07:00,48.2,18.2,29.64,NNW,329,7.1,12.0,30,0.00,CLR,,0.00,WeatherDisplay:10.37,2013-01-20 20:07:00,
2013-01-20 15:13:00,48.0,18.0,29.65,NW,309,7.3,13.8,30,0.00,CLR,,0.00,WeatherDisplay:10.37,2013-01-20 20:13:00,
2013-01-20 15:18:00,48.0,16.4,29.65,West,271,6.7,12.7,28,0.00,CLR,,0.00,WeatherDisplay:10.37,2013-01-20 20:18:00,
2013-01-20 15:23:00,47.6,17.6,29.66,NW,319,7.4,15.0,30,0.00,CLR,,0.00,WeatherDisplay:10.37,2013-01-20 20:23:00,
2013-01-20 15:28:00,47.3,16.6,29.66,WNW,286,9.2,12.7,29,0.00,CLR,,0.00,WeatherDisplay:10.37,2013-01-20 20:28:00,
2013-01-20 15:33:00,47.0,16.3,29.66,West,265,4.2,5.8,29,0.00,CLR,,0.00,WeatherDisplay:10.37,2013-01-20 20:33:00,
2013-01-20 15:38:00,46.5,15.9,29.67,NW,317,9.9,19.6,29,0.00,CLR,,0.00,WeatherDisplay:10.37,2013-01-20 20:38:00,
2013-01-20 15:44:00,46.2,14.8,29.68,WNW,289,5.8,10.4,28,0.00,CLR,,0.00,WeatherDisplay:10.37,2013-01-20 20:44:00,
2013-01-20 15:49:00,45.8,15.3,29.68,WNW,294,7.3,11.5,29,0.00,CLR,,0.00,WeatherDisplay:10.37,2013-01-20 20:49:00,
2013-01-20 15:54:00,45.5,15.0,29.68,West,277,7.2,11.5,29,0.00,CLR,,0.00,WeatherDisplay:10.37,2013-01-20 20:54:00,
2013-01-20 15:59:00,45.2,16.3,29.68,NW,315,7.3,13.8,31,0.00,CLR,,0.00,WeatherDisplay:10.37,2013-01-20 20:59:00,
2013-01-20 16:04:00,44.9,14.5,29.69,WNW,299,12.1,17.3,29,0.00,CLR,,0.00,WeatherDisplay:10.37,2013-01-20 21:04:00,
2013-01-20 16:09:00,44.3,14.8,29.70,NNW,330,11.3,20.7,30,0.00,CLR,,0.00,WeatherDisplay:10.37,2013-01-20 21:09:00,
2013-01-20 16:15:00,43.8,13.6,29.71,West,275,10.2,19.6,29,0.00,CLR,,0.00,WeatherDisplay:10.37,2013-01-20 21:15:00,
2013-01-20 16:20:00,43.2,14.6,29.71,NW,308,13.8,24.2,31,0.00,CLR,,0.00,WeatherDisplay:10.37,2013-01-20 21:20:00,
2013-01-20 16:25:00,42.9,15.0,29.72,North,355,9.3,13.8,32,0.00,CLR,,0.00,WeatherDisplay:10.37,2013-01-20 21:25:00,
2013-01-20 16:30:00,42.6,14.8,29.72,NW,323,7.7,17.3,32,0.00,CLR,,0.00,WeatherDisplay:10.37,2013-01-20 21:30:00,
2013-01-20 16:35:00,42.5,15.4,29.72,NNW,329,9.6,11.5,33,0.00,CLR,,0.00,WeatherDisplay:10.37,2013-01-20 21:35:00,
2013-01-20 16:41:00,42.2,15.1,29.73,WNW,295,4.3,5.8,33,0.00,CLR,,0.00,WeatherDisplay:10.37,2013-01-20 21:41:00,
2013-01-20 16:46:00,41.9,15.5,29.74,NW,311,6.0,10.4,34,0.00,CLR,,0.00,WeatherDisplay:10.37,2013-01-20 21:46:00,
2013-01-20 16:52:00,41.2,14.9,29.74,WNW,294,14.2,19.6,34,0.00,CLR,,0.00,WeatherDisplay:10.37,2013-01-20 21:52:00,
2013-01-20 16:57:00,40.6,15.0,29.75,WSW,246,6.9,19.6,35,0.00,CLR,,0.00,WeatherDisplay:10.37,2013-01-20 21:57:00,
2013-01-20 17:02:00,40.2,15.3,29.75,NW,321,10.8,18.0,36,0.00,CLR,,0.00,WeatherDisplay:10.37,2013-01-20 22:02:00,
2013-01-20 17:07:00,39.8,14.3,29.76,WNW,295,8.0,11.5,35,0.00,CLR,,0.00,WeatherDisplay:10.37,2013-01-20 22:07:00,
2013-01-20 17:12:00,39.5,13.4,29.77,NNW,327,4.3,10.4,34,0.00,CLR,,0.00,WeatherDisplay:10.37,2013-01-20 22:12:00,
2013-01-20 17:17:00,39.2,11.8,29.77,SW,219,6.9,19.6,32,0.00,CLR,,0.00,WeatherDisplay:10.37,2013-01-20 22:17:00,
2013-01-20 17:22:00,38.9,12.2,29.77,WNW,303,9.7,13.8,33,0.00,CLR,,0.00,WeatherDisplay:10.37,2013-01-20 22:22:00,
2013-01-20 17:27:00,38.6,11.9,29.77,West,280,6.8,13.8,33,0.00,CLR,,0.00,WeatherDisplay:10.37,2013-01-20 22:27:00,
2013-01-20 17:32:00,38.3,11.7,29.77,NW,311,4.3,11.5,33,0.00,CLR,,0.00,WeatherDisplay:10.37,2013-01-20 22:32:00,
2013-01-20 17:38:00,38.3,11.7,29.78,WSW,254,3.3,10.4,33,0.00,CLR,,0.00,WeatherDisplay:10.37,2013-01-20 22:38:00,
2013-01-20 17:43:00,38.2,11.6,29.79,WSW,240,5.0,6.9,33,0.00,CLR,,0.00,WeatherDisplay:10.37,2013-01-20 22:43:00,
2013-01-20 17:48:00,37.9,13.3,29.79,WNW,288,6.9,9.2,36,0.00,CLR,,0.00,WeatherDisplay:10.37,2013-01-20 22:48:00,
2013-01-20 17:53:00,37.8,11.9,29.79,WNW,283,8.7,10.4,34,0.00,CLR,,0.00,WeatherDisplay:10.37,2013-01-20 22:53:00,
2013-01-20 17:58:00,37.6,12.4,29.80,NW,315,7.4,11.5,35,0.00,CLR,,0.00,WeatherDisplay:10.37,2013-01-20 22:58:00,
2013-01-20 18:03:00,37.3,12.7,29.80,West,281,3.6,7.0,36,0.00,CLR,,0.00,WeatherDisplay:10.37,2013-01-20 23:03:00,
2013-01-20 18:09:00,37.0,13.1,29.80,West,267,8.9,9.0,37,0.00,CLR,,0.00,WeatherDisplay:10.37,2013-01-20 23:09:00,
2013-01-20 18:14:00,36.9,14.2,29.81,WNW,293,9.2,12.0,39,0.00,CLR,,0.00,WeatherDisplay:10.37,2013-01-20 23:14:00,
2013-01-20 18:19:00,36.6,13.9,29.81,West,269,8.6,10.4,39,0.00,CLR,,0.00,WeatherDisplay:10.37,2013-01-20 23:19:00,
2013-01-20 18:24:00,36.3,14.3,29.82,WNW,300,10.6,17.3,40,0.00,CLR,,0.00,WeatherDisplay:10.37,2013-01-20 23:24:00,
2013-01-20 18:29:00,35.9,13.9,29.82,WSW,258,10.3,13.8,40,0.00,CLR,,0.00,WeatherDisplay:10.37,2013-01-20 23:29:00,
2013-01-20 18:34:00,35.6,14.2,29.83,NW,307,9.0,11.5,41,0.00,CLR,,0.00,WeatherDisplay:10.37,2013-01-20 23:34:00,
2013-01-20 18:39:00,35.3,13.3,29.83,NNW,342,6.9,21.9,40,0.00,CLR,,0.00,WeatherDisplay:10.37,2013-01-20 23:39:00,
2013-01-20 18:45:00,34.9,13.5,29.83,West,276,3.7,9.2,41,0.00,CLR,,0.00,WeatherDisplay:10.37,2013-01-20 23:45:00,
2013-01-20 18:50:00,34.6,13.3,29.83,NW,313,3.5,11.5,41,0.00,CLR,,0.00,WeatherDisplay:10.37,2013-01-20 23:50:00,
2013-01-20 18:55:00,34.3,13.6,29.83,NW,307,9.3,12.7,42,0.00,CLR,,0.00,WeatherDisplay:10.37,2013-01-20 23:55:00,
2013-01-20 19:00:00,34.1,13.4,29.84,WNW,298,8.0,12.7,42,0.00,CLR,,0.00,WeatherDisplay:10.37,2013-01-21 00:00:00,
2013-01-20 19:05:00,33.8,13.6,29.84,NW,321,3.0,6.9,43,0.00,CLR,,0.00,WeatherDisplay:10.37,2013-01-21 00:05:00,
2013-01-20 19:10:00,33.7,14.1,29.84,WNW,297,2.6,2.6,44,0.00,CLR,,0.00,WeatherDisplay:10.37,2013-01-21 00:10:00,
2013-01-20 19:16:00,33.4,14.3,29.85,WNW,287,3.8,9.2,45,0.00,CLR,,0.00,WeatherDisplay:10.37,2013-01-21 00:16:00,
2013-01-20 19:21:00,33.1,14.5,29.85,NW,323,7.9,11.5,46,0.00,CLR,,0.00,WeatherDisplay:10.37,2013-01-21 00:21:00,
2013-01-20 19:27:00,33.1,14.5,29.86,NW,321,5.0,6.9,46,0.00,CLR,,0.00,WeatherDisplay:10.37,2013-01-21 00:27:00,
2013-01-20 19:32:00,32.8,14.8,29.86,WNW,282,7.9,10.0,47,0.00,CLR,,0.00,WeatherDisplay:10.37,2013-01-21 00:32:00,
2013-01-20 19:37:00,32.7,14.7,29.87,WNW,285,7.3,11.5,47,0.00,CLR,,0.00,WeatherDisplay:10.37,2013-01-21 00:37:00,
2013-01-20 19:43:00,32.7,14.2,29.87,NW,316,5.9,11.5,46,0.00,CLR,,0.00,WeatherDisplay:10.37,2013-01-21 00:43:00,
2013-01-20 19:48:00,32.5,14.0,29.87,West,277,13.1,13.1,46,0.00,CLR,,0.00,WeatherDisplay:10.37,2013-01-21 00:48:00,
2013-01-20 19:53:00,32.2,14.2,29.87,WNW,294,4.9,6.9,47,0.00,CLR,,0.00,WeatherDisplay:10.37,2013-01-21 00:53:00,
2013-01-20 19:58:00,32.1,13.6,29.87,NW,313,5.0,9.2,46,0.00,CLR,,0.00,WeatherDisplay:10.37,2013-01-21 00:58:00,
2013-01-20 20:03:00,31.9,13.4,29.88,WNW,294,7.2,11.5,46,0.00,CLR,,0.00,WeatherDisplay:10.37,2013-01-21 01:03:00,
2013-01-20 20:08:00,31.8,13.3,29.88,NW,306,6.4,11.5,46,0.00,CLR,,0.00,WeatherDisplay:10.37,2013-01-21 01:08:00,
2013-01-20 20:13:00,31.5,13.6,29.88,West,263,7.0,15.0,47,0.00,CLR,,0.00,WeatherDisplay:10.37,2013-01-21 01:13:00,
2013-01-20 20:19:00,31.5,13.6,29.88,WNW,297,8.8,12.7,47,0.00,CLR,,0.00,WeatherDisplay:10.37,2013-01-21 01:19:00,
2013-01-20 20:24:00,31.3,13.4,29.89,WNW,296,8.6,15.0,47,0.00,CLR,,0.00,WeatherDisplay:10.37,2013-01-21 01:24:00,
2013-01-20 20:29:00,31.2,13.8,29.89,WNW,284,5.7,9.2,48,0.00,CLR,,0.00,WeatherDisplay:10.37,2013-01-21 01:29:00,
2013-01-20 20:34:00,30.9,13.5,29.89,West,271,7.1,10.4,48,0.00,CLR,,0.00,WeatherDisplay:10.37,2013-01-21 01:34:00,
2013-01-20 20:39:00,30.9,13.5,29.89,West,277,6.8,11.5,48,0.00,CLR,,0.00,WeatherDisplay:10.37,2013-01-21 01:39:00,
2013-01-20 20:44:00,30.7,13.3,29.90,NW,308,5.0,9.2,48,0.00,CLR,,0.00,WeatherDisplay:10.37,2013-01-21 01:44:00,
2013-01-20 20:49:00,30.6,13.2,29.90,NW,307,4.4,6.9,48,0.00,CLR,,0.00,WeatherDisplay:10.37,2013-01-21 01:49:00,
2013-01-20 20:55:00,30.3,13.9,29.90,NW,306,3.2,6.9,50,0.00,CLR,,0.00,WeatherDisplay:10.37,2013-01-21 01:55:00,
2013-01-20 21:00:00,30.1,14.1,29.90,NW,304,1.9,4.6,51,0.00,CLR,,0.00,WeatherDisplay:10.37,2013-01-21 02:00:00,
2013-01-20 21:05:00,29.8,14.3,29.91,WNW,301,1.8,3.5,52,0.00,CLR,,0.00,WeatherDisplay:10.37,2013-01-21 02:05:00,
2013-01-20 21:10:00,29.7,14.2,29.91,WNW,303,3.0,5.8,52,0.00,CLR,,0.00,WeatherDisplay:10.37,2013-01-21 02:10:00,
2013-01-20 21:15:00,29.5,14.5,29.92,NW,304,3.0,5.8,53,0.00,CLR,,0.00,WeatherDisplay:10.37,2013-01-21 02:15:00,
2013-01-20 21:21:00,29.4,13.5,29.92,WNW,293,2.7,3.5,51,0.00,CLR,,0.00,WeatherDisplay:10.37,2013-01-21 02:21:00,
2013-01-20 21:26:00,29.4,13.0,29.92,NW,312,5.6,6.9,50,0.00,CLR,,0.00,WeatherDisplay:10.37,2013-01-21 02:26:00,
2013-01-20 21:32:00,29.3,12.9,29.92,West,271,3.7,6.9,50,0.00,CLR,,0.00,WeatherDisplay:10.37,2013-01-21 02:32:00,
2013-01-20 21:37:00,29.1,12.3,29.93,WNW,297,6.8,16.1,49,0.00,CLR,,0.00,WeatherDisplay:10.37,2013-01-21 02:37:00,
2013-01-20 21:42:00,29.1,12.3,29.93,West,273,3.3,6.9,49,0.00,CLR,,0.00,WeatherDisplay:10.37,2013-01-21 02:42:00,
2013-01-20 21:47:00,29.0,12.2,29.93,West,273,5.3,11.5,49,0.00,CLR,,0.00,WeatherDisplay:10.37,2013-01-21 02:47:00,
2013-01-20 21:53:00,28.8,12.5,29.93,NW,319,4.6,7.0,50,0.00,CLR,,0.00,WeatherDisplay:10.37,2013-01-21 02:53:00,
2013-01-20 21:58:00,28.7,11.9,29.93,West,271,7.3,11.5,49,0.00,CLR,,0.00,WeatherDisplay:10.37,2013-01-21 02:58:00,
2013-01-20 22:03:00,28.5,11.7,29.93,West,275,6.3,10.4,49,0.00,CLR,,0.00,WeatherDisplay:10.37,2013-01-21 03:03:00,
2013-01-20 22:08:00,28.5,11.7,29.93,West,275,4.6,9.2,49,0.00,CLR,,0.00,WeatherDisplay:10.37,2013-01-21 03:08:00,
2013-01-20 22:13:00,28.5,11.7,29.93,NW,306,5.8,9.0,49,0.00,CLR,,0.00,WeatherDisplay:10.37,2013-01-21 03:13:00,
2013-01-20 22:19:00,28.4,11.2,29.94,WNW,290,7.4,11.5,48,0.00,CLR,,0.00,WeatherDisplay:10.37,2013-01-21 03:19:00,
2013-01-20 22:24:00,28.4,11.6,29.94,North,360,4.7,11.0,49,0.00,CLR,,0.00,WeatherDisplay:10.37,2013-01-21 03:24:00,
2013-01-20 22:29:00,28.4,11.6,29.95,West,269,3.5,13.8,49,0.00,CLR,,0.00,WeatherDisplay:10.37,2013-01-21 03:29:00,
2013-01-20 22:34:00,28.2,11.5,29.95,WNW,301,6.7,11.5,49,0.00,CLR,,0.00,WeatherDisplay:10.37,2013-01-21 03:34:00,
2013-01-20 22:39:00,28.2,11.5,29.95,NW,304,4.8,5.8,49,0.00,CLR,,0.00,WeatherDisplay:10.37,2013-01-21 03:39:00,
2013-01-20 22:44:00,27.9,10.7,29.95,WNW,297,4.8,7.0,48,0.00,CLR,,0.00,WeatherDisplay:10.37,2013-01-21 03:44:00,
2013-01-20 22:50:00,27.8,10.2,29.95,NW,313,6.5,11.5,47,0.00,CLR,,0.00,WeatherDisplay:10.37,2013-01-21 03:50:00,
2013-01-20 22:55:00,27.5,9.4,29.95,West,275,9.3,12.7,46,0.00,CLR,,0.00,WeatherDisplay:10.37,2013-01-21 03:55:00,
2013-01-20 23:00:00,27.3,8.7,29.95,WNW,285,4.3,5.0,45,0.00,CLR,,0.00,WeatherDisplay:10.37,2013-01-21 04:00:00,
2013-01-20 23:06:00,27.2,9.6,29.95,NW,315,4.1,5.8,47,0.00,CLR,,0.00,WeatherDisplay:10.37,2013-01-21 04:06:00,
2013-01-20 23:11:00,26.9,8.8,29.95,WNW,292,6.2,7.0,46,0.00,CLR,,0.00,WeatherDisplay:10.37,2013-01-21 04:11:00,
2013-01-20 23:16:00,26.7,8.7,29.95,West,271,2.6,4.6,46,0.00,CLR,,0.00,WeatherDisplay:10.37,2013-01-21 04:16:00,
2013-01-20 23:21:00,26.6,8.1,29.95,WNW,296,4.2,12.7,45,0.00,CLR,,0.00,WeatherDisplay:10.37,2013-01-21 04:21:00,
2013-01-20 23:27:00,26.4,7.9,29.95,NNW,329,4.9,6.0,45,0.00,CLR,,0.00,WeatherDisplay:10.37,2013-01-21 04:27:00,
2013-01-20 23:32:00,26.3,7.3,29.95,West,270,8.8,11.5,44,0.00,CLR,,0.00,WeatherDisplay:10.37,2013-01-21 04:32:00,
2013-01-20 23:37:00,26.3,7.3,29.95,West,277,1.9,2.3,44,0.00,CLR,,0.00,WeatherDisplay:10.37,2013-01-21 04:37:00,
2013-01-20 23:42:00,26.1,7.6,29.95,West,274,3.4,4.6,45,0.00,CLR,,0.00,WeatherDisplay:10.37,2013-01-21 04:42:00,
2013-01-20 23:47:00,26.1,7.1,29.95,West,272,3.8,5.8,44,0.00,CLR,,0.00,WeatherDisplay:10.37,2013-01-21 04:47:00,
2013-01-20 23:53:00,26.0,7.5,29.95,West,281,1.8,3.5,45,0.00,CLR,,0.00,WeatherDisplay:10.37,2013-01-21 04:53:00,
2013-01-20 23:58:00,26.0,7.0,29.95,WNW,291,1.3,3.5,44,0.00,CLR,,0.00,WeatherDisplay:10.37,2013-01-21 04:58:00,